Terug naar catalogus

STARLINK-31627

ActiefCommunicatieVLEO
NORAD 59268·PAYLOAD·🇺🇸 United States

Gelanceerd Mar 19, 2024 vanaf Vandenberg Space Force Base

Loading…

Volgende Passages (komende 24 uur)

TLE

VersSource: CelesTrak SupGP

Epoch: Sep 14, 2026, 22:49 UTC

1 59268C 24050Q   26257.95118056 -.00010470  00000+0 -30948-3 0  2575
2 59268  53.1593  19.4489 0001008  85.2815 135.8369 15.34382469    12

Volg STARLINK-31627 in realtime met AllMySat

Download on the App Store